Regional Weather Roundup
Issued by NWS

Home | Current Version | Previous Version | Text Only | Print | Product List | Glossary On
Versions: 1 2 3 4 5 6 7 8 9 10 11 12 13 14 15 16 17 18 19 20 21 22 23 24 25 26 27 28 29 30 31 32 33 34 35 36 37 38 39 40 41 42 43 44 45 46 47 48 49 50
547
ASUS42 KTBW 290316
RWRFL
FLORIDA REGIONAL WEATHER ROUNDUP
NATIONAL WEATHER SERVICE TAMPA BAY RUSKIN FL
1100 PM EDT SUN AUG 28 2016

NOTE: "FAIR" INDICATES FEW OR NO CLOUDS BELOW 12,000 FEET WITH NO
SIGNIFICANT WEATHER AND/OR OBSTRUCTIONS TO VISIBILITY.

FLZ001>010-012>015-112-114-115-290400-
PANHANDLE FLORIDA

CITY           SKY/WX    TMP DP  RH WIND       PRES   REMARKS
PENSACOLA      PTCLDY    81  77  88 NE3       30.00R
PENSACOLA NAS  CLOUDY    80  75  84 NE5       29.99R
MILTON NAS     CLOUDY    76  76 100 CALM      30.01
CRESTVIEW      CLOUDY    79  75  87 S3        30.03R
DUKE FIELD     FAIR      78  75  89 CALM      30.00S
VALPARAISO     LGT RAIN  80  72  77 VRB2      29.99F
MARY ESTHER    MOCLDY    82  74  77 NE5       30.00R
PANAMA CITY    FAIR      77  75  93 CALM      29.99R
TYNDALL AFB    MOCLDY    79  76  91 CALM      29.95F
APALACHICOLA   CLOUDY    80  78  94 N3        29.98R

STATION/POSITION SKY/WX   TEMP    WIND        PRES    WAVE   SWELL
                          AIR SEA DIR/SP/G            HT/PER HT/PER
                          (F)     (DEG/KT/KT) (MB)    (FT/S) (FT/S)
30.1N   87.6W              84 86   60/ 10/ 12 1015.2R   3/ 6   2/ 6
29.2N   88.2W              83 85   60/ 14/ 16 1013.9R
28.8N   86.0W              85 85   80/ 12/ 14 1014.2    3/ 6   2/ 6
PANAMA CITY BEAC           81 87  130/  9/ 11 1016.0R
TOWER C                    86      70/ 13/ 13 1015.5R
28.5N   84.5W              86 86   80/ 10/ 14 1014.2R   3/ 5

$$
FLZ011-016>038-118-127-128-134-139-239-290400-
NORTH FLORIDA

CITY           SKY/WX    TMP DP  RH WIND       PRES   REMARKS
MARIANNA       CLOUDY    79  73  82 CALM      30.00R
TALLAHASSEE    PTCLDY    84  72  67 E10       30.00S
PERRY          CLEAR     81  71  71 CALM      30.02R
CROSS CITY     CLEAR     79  72  78 CALM      30.00S
LAKE CITY      FAIR      79  73  83 NE3       30.02F
GAINESVILLE    CLEAR     79  73  82 E6        30.01R
MAYPORT NAS    PTCLDY    83  75  77 NE13      30.03S
JACKSONVILLE   PTCLDY    81  77  88 NE6       30.02F
JAX NAS        PTCLDY    85  75  72 E8        30.03S
FERNANDINA BEA FAIR      86  77  74 E12       30.03S HX  97
ST AUGUSTINE   MOCLDY    82  77  84 NE10      30.03R

STATION/POSITION SKY/WX   TEMP    WIND        PRES    WAVE   SWELL
                          AIR SEA DIR/SP/G            HT/PER HT/PER
                          (F)     (DEG/KT/KT) (MB)    (FT/S) (FT/S)
SHELL POINT                83      20/  3/  4 1014.0
KEATON BEACH               81      60/  8/ 11 1015.7R
CEDAR KEY                  83      70/ 15/ 17 1015.4R
FERNANDINA                 83 86   50/  2/  9 1017.2R
30.7N   81.3W                 85                N/A     3/ 5
MAYPORT                    83 85   80/ 11/ 13 1017.4R
31.4N   80.9W              83 85   60/ 12/ 14 1017.6R   3/ 8   2/ 8
ST AUGUSTINE               83 85   80/ 12/ 13 1017.4R

$$
FLZ040-043>046-052-053-057-058-063-144-290400-
INTERIOR CENTRAL FLORIDA

CITY           SKY/WX    TMP DP  RH WIND       PRES   REMARKS
OCALA          CLEAR     81  72  74 NE8       30.00R
THE VILLAGES     N/A     79  77  94 MISG      29.90S
LEESBURG       CLEAR     80  76  87 NE7       29.99S
SANFORD        PTCLDY    79  74  84 E8        29.99R
ORLANDO EXEC   CLEAR     79  76  90 E5        29.99R
ORLANDO INTL   PTCLDY    79  75  87 E7        29.99R
KISSIMMEE      CLEAR     81  76  84 E9        29.98S
WINTER HAVEN   CLEAR     80  74  81 NE3       29.98S
LAKELAND       CLEAR     81  75  83 E6        29.97S
BARTOW         FAIR      79  79 100 NE7       29.97S
OKEECHOBEE     CLEAR     77  75  94 NE3       29.96S

$$
FLZ041-047-054-059-064-141-147-290400-
EAST CENTRAL FLORIDA

CITY           SKY/WX    TMP DP  RH WIND       PRES   REMARKS
DAYTONA BEACH  CLOUDY    83  76  79 E8        30.00S
DELAND         CLOUDY    79  77  94 N3        30.00R
JFK SPACE CTR  PTCLDY    79  75  86 E5        29.98R
CAPE CANAVERAL PTCLDY    82  77  84 E7        29.97R
PATRICK AFB    CLEAR     80  75  83 NE10      29.97S
MELBOURNE      PTCLDY    83  77  82 E10       29.98R
VERO BEACH     CLEAR     82  76  81 E6        29.97R
FT PIERCE      LGT RAIN  79  75  87 E18G25    29.97R
STUART         CLEAR     82  77  83 SE7       29.97S

STATION/POSITION SKY/WX   TEMP    WIND        PRES    WAVE   SWELL
                          AIR SEA DIR/SP/G            HT/PER HT/PER
                          (F)     (DEG/KT/KT) (MB)    (FT/S) (FT/S)
28.5N   80.2W              83 83   90/  8/ 10 1015.5R
TRIDENT PIER               83 86   60/  6/  8 1015.2R
28.4N   80.5W                 85                N/A     3/ 5
27.5N   80.2W                 84                N/A     3/ 5

$$
FLZ050-056-061-142-242-148-248-149-249-151-251-155-255-
160-260-290400-
WEST CENTRAL FLORIDA

CITY           SKY/WX    TMP DP  RH WIND       PRES   REMARKS
CRYSTAL RIVER  FAIR      79  73  83 NE5       29.98S
INVERNESS      FAIR      81  77  89 NE6       29.99R
BROOKSVILLE    PTCLDY    80  74  81 E8        29.98R
CLEARWATER AIR FAIR      79  77  94 E3        29.96S
ST PETE CLEARW CLEAR     83  76  79 E9        29.96R
TAMPA INTL     PTCLDY    83  75  77 NE6       29.97R
TAMPA EXEC     CLEAR     81  77  89 CALM      29.97R
PLANT CITY     CLEAR     81  77  89 E5        29.99R
MACDILL AFB    CLEAR     81  79  94 E10       29.96R
PETER O KNIGHT CLEAR     82  77  83 E10       29.96S
ST PETERSBURG  PTCLDY    83  76  79 E17       29.95R
SARASOTA       CLEAR     82  73  74 E8        29.93R
VENICE         FAIR      81  75  83 E10       29.93F

STATION/POSITION SKY/WX   TEMP    WIND        PRES    WAVE   SWELL
                          AIR SEA DIR/SP/G            HT/PER HT/PER
                          (F)     (DEG/KT/KT) (MB)    (FT/S) (FT/S)
27.3N   84.2W                 86                N/A     3/ 5
CLEARWATER BEACH           83 87   70/  7/ 10 1014.2R
MIDDLE TAMPA BAY                  100/ 11/ 13 1014.1R
VENICE                     81 84   70/  8/ 10 1013.2R

$$
FLZ066-069-070-075>078-162-262-165-265-290400-
SOUTHWEST FLORIDA AND KEYS

CITY           SKY/WX    TMP DP  RH WIND       PRES   REMARKS
PUNTA GORDA    PTCLDY    78  72  81 E6        29.94S
FT MYERS       CLOUDY    80  75  84 E8        29.91S
SOUTHWEST INTL CLOUDY    81  74  79 E9        29.92R
NAPLES         CLOUDY    81  75  82 E10       29.90S
MARATHON       LGT RAIN  79  76  90 SE12G25   29.89R FOG
KEY WEST NAS   MOCLDY     2  32 100 MISG      29.86R
KEY WEST INTL  PTCLDY    82  76  81 SE20G28   29.86R

STATION/POSITION SKY/WX   TEMP    WIND        PRES    WAVE   SWELL
                          AIR SEA DIR/SP/G            HT/PER HT/PER
                          (F)     (DEG/KT/KT) (MB)    (FT/S) (FT/S)
NAPLES                        87              1012.5R
26.0N   85.6W              81 86   60/ 14/ 16 1012.2S   4/ 6
DRY TORTUGAS               83      90/ 25/ 28 1010.0R
SAND KEY                   82     140/ 22/ 25 1011.0R
LONG KEY                   82 86  130/ 14/ 16 1012.4R

$$
FLZ067-068-071>074-168-172>174-290400-
SOUTHEAST FLORIDA

CITY           SKY/WX    TMP DP  RH WIND       PRES   REMARKS
W PALM BEACH   TSTM      81  76  84 E8        29.96R
BOCA RATON     CLEAR     81  77  89 SE7       29.94S
FT LAUDER-EXEC PTCLDY    79  75  87 E5        29.93F
FT LAUDERDALE  MOCLDY    82  77  84 E12       29.93S
POMPANO BEACH  PTCLDY    82  76  81 E9        29.94S
OPA LOCKA      PTCLDY    80  75  84 NE3       29.93F
MIAMI          MOCLDY    83  76  79 E9        29.93S
WEST KENDALL   PTCLDY    82  76  81 E12       29.92S
HOMESTEAD      MOCLDY    77  73  88 SE17G28   29.94R

STATION/POSITION SKY/WX   TEMP    WIND        PRES    WAVE   SWELL
                          AIR SEA DIR/SP/G            HT/PER HT/PER
                          (F)     (DEG/KT/KT) (MB)    (FT/S) (FT/S)
PORT EVERGLADES            83     100/  5/ 11 1013.6R
VIRGINIA KEY               83 89  120/  8/ 11 1013.9R
LAKE WORTH                 81 86   70/  7/  9 1013.9R
FOWEY ROCKS                84 85  120/ 18/ 20 1013.8S
SETTLEMENT POINT           81     120/  8/  9 1015.2R

$$





USA.gov is the U.S. government's official web portal to all federal, state and local government web resources and services.